User: anonymous   Login
Location: Unspecified
(0.0000°N, 0.0000°E)
Time: 04:24:31
(UTC+00:00)
Language:

Altair - Orbit

View from above orbital plane
View from above orbital plane
View from above satellite
View from above satellite

Ground track
Ground track

The orbit data is extracted from the following two-line orbital elements,

1    50U 60009B   15243.85634529 -.00000091 +00000-0 -47474-4 0  9999
2    50 047.2305 157.5670 0113109 145.5377 215.2811 12.20092465456361
Epoch (UTC): 31 August 2015 20:33:08
Eccentricity: 0.0113109
inclination: 47.2305°
perigee height: 1502 km
apogee height: 1682 km
right ascension of ascending node: 157.5670°
argument of perigee: 145.5377°
revolutions per day: 12.20092465
mean anomaly at epoch: 215.2811°
orbit number at epoch: 45636

The dashed part of the orbit path shows where the satellite is in the earth's shadow,  

DLR